TimeCST,TemperatureF,Dew PointF,Humidity,Sea Level PressureIn,VisibilityMPH,Wind Direction,Wind SpeedMPH,Gust SpeedMPH,PrecipitationIn,Events,Conditions,WindDirDegrees,DateUTC
12:54 AM,5.0,-9.9,50,30.40,10.0,NW,11.5,-,N/A,,Clear,310,2012-02-11 06:54:00
1:54 AM,5.0,-9.9,50,30.39,10.0,NW,10.4,-,N/A,,Clear,320,2012-02-11 07:54:00
2:54 AM,3.9,-9.9,53,30.40,10.0,NW,12.7,-,N/A,,Clear,320,2012-02-11 08:54:00
3:54 AM,3.9,-9.9,53,30.40,10.0,NW,18.4,-,N/A,,Clear,320,2012-02-11 09:54:00
4:54 AM,3.0,-11.0,52,30.42,10.0,NW,12.7,-,N/A,,Clear,320,2012-02-11 10:54:00
5:54 AM,1.9,-11.0,55,30.43,10.0,NW,10.4,-,N/A,,Clear,310,2012-02-11 11:54:00
6:54 AM,1.9,-11.9,52,30.44,10.0,NW,15.0,-,N/A,,Clear,310,2012-02-11 12:54:00
7:54 AM,1.9,-11.9,52,30.45,10.0,NW,13.8,-,N/A,,Clear,310,2012-02-11 13:54:00
8:54 AM,3.9,-11.0,50,30.47,10.0,NW,24.2,29.9,N/A,,Clear,320,2012-02-11 14:54:00
9:54 AM,5.0,-9.0,52,30.46,10.0,NW,18.4,27.6,N/A,,Clear,310,2012-02-11 15:54:00
10:54 AM,7.0,-8.0,51,30.46,10.0,WNW,19.6,-,N/A,,Clear,300,2012-02-11 16:54:00
11:54 AM,9.0,-7.1,48,30.44,10.0,WNW,21.9,29.9,N/A,,Clear,300,2012-02-11 17:54:00
12:54 PM,10.9,-6.0,47,30.43,10.0,WNW,19.6,27.6,N/A,,Clear,300,2012-02-11 18:54:00
1:54 PM,12.0,-5.1,46,30.42,10.0,WNW,21.9,28.8,N/A,,Clear,300,2012-02-11 19:54:00
2:54 PM,12.9,-4.0,47,30.42,10.0,NW,21.9,29.9,N/A,,Clear,310,2012-02-11 20:54:00
3:54 PM,14.0,-2.9,47,30.42,10.0,WNW,18.4,29.9,N/A,,Clear,300,2012-02-11 21:54:00
4:54 PM,14.0,-4.0,45,30.43,10.0,WNW,17.3,25.3,N/A,,Clear,300,2012-02-11 22:54:00
5:54 PM,12.9,-4.0,47,30.43,10.0,WNW,16.1,-,N/A,,Clear,290,2012-02-11 23:54:00
6:54 PM,12.0,-4.0,49,30.42,10.0,WNW,16.1,-,N/A,,Clear,290,2012-02-12 00:54:00
7:54 PM,12.0,-4.0,49,30.42,10.0,WNW,18.4,26.5,N/A,,Clear,290,2012-02-12 01:54:00
8:54 PM,12.0,-4.0,49,30.40,10.0,WNW,18.4,25.3,N/A,,Clear,300,2012-02-12 02:54:00
9:54 PM,12.0,-4.0,49,30.39,10.0,WNW,18.4,29.9,N/A,,Clear,300,2012-02-12 03:54:00
10:54 PM,10.9,-4.0,51,30.37,10.0,WNW,18.4,25.3,N/A,,Clear,300,2012-02-12 04:54:00
11:54 PM,10.9,-2.9,54,30.36,10.0,WNW,17.3,25.3,N/A,,Clear,300,2012-02-12 05:54:00